EW4052 Weather Reports


time (UTC)temp
F
wind
direction
speed
knots
gust
knots
rain 1hr
in
rain 24hr
in
rain mn
in
humidity
%
barometer
mb
20260505124531 42 252 3.5 6.1 0.00 0.00 0.00 67 1010.0
20260505123023 42 250 2.6 5.2 0.00 0.00 0.00 67 1009.8
20260505121522 40 242 1.7 4.3 0.00 0.00 0.00 70 1009.6
20260505120020 39 240 0.0 0.0 0.00 0.00 0.00 68 1009.3
20260505114518 38 240 0.0 0.0 0.00 0.00 0.00 68 1009.0
20260505113116 37 240 0.0 0.0 0.00 0.00 0.00 68 1008.9
20260505111513 37 240 0.0 0.0 0.00 0.00 0.00 66 1008.6
20260505101559 42 259 4.3 7.8 0.00 0.00 0.00 63 1007.8
20260505100056 42 259 5.2 8.7 0.00 0.00 0.00 62 1007.5
20260505094554 43 254 6.1 8.7 0.00 0.00 0.00 62 1007.3
20260505093050 43 248 3.5 8.7 0.00 0.00 0.00 62 1007.3
20260505091606 43 265 5.2 9.6 0.00 0.00 0.00 62 1007.1
20260505090046 44 263 5.2 9.6 0.00 0.00 0.00 62 1007.1
20260505084542 44 260 4.3 7.8 0.00 0.00 0.00 60 1006.9
20260505083039 45 263 6.1 7.8 0.00 0.00 0.00 61 1007.0
20260505081539 45 249 4.3 8.7 0.00 0.00 0.00 60 1006.8
20260505080034 45 246 6.1 8.7 0.00 0.00 0.00 57 1006.8
20260505074532 46 256 5.2 8.7 0.00 0.00 0.00 57 1006.7
20260505073032 46 269 6.1 8.7 0.00 0.00 0.00 56 1006.8
20260505071528 46 260 6.1 9.6 0.00 0.00 0.00 58 1006.6
20260505070026 46 252 7.0 8.7 0.00 0.00 0.00 56 1006.5
20260505064523 46 264 6.1 10.4 0.00 0.00 0.00 56 1006.4
20260505063019 47 269 6.1 9.6 0.00 0.00 0.00 53 1006.5
20260505061516 47 262 5.2 9.6 0.00 0.00 0.00 56 1006.4
20260505060015 47 269 2.6 7.8 0.00 0.00 0.00 56 1006.4
20260505054512 47 269 1.7 9.6 0.00 0.00 0.00 55 1006.3
20260505053009 47 275 6.1 9.6 0.00 0.00 0.00 55 1006.2
20260505051522 48 274 5.2 10.4 0.00 0.00 0.00 55 1006.3
20260505041606 49 272 9.6 14.8 0.00 0.00 0.00 56 1006.4
20260505040104 50 288 9.6 13.9 0.00 0.00 0.00 55 1006.3
20260505034557 50 271 9.6 15.6 0.00 0.00 0.00 54 1006.2
20260505033056 50 277 8.7 14.8 0.00 0.00 0.00 53 1006.1
20260505031558 51 271 11.3 17.4 0.00 0.00 0.00 52 1006.0
20260505030053 51 265 12.2 17.4 0.00 0.00 0.00 51 1006.0
20260505024553 52 278 12.2 19.1 0.00 0.00 0.00 52 1005.7
20260505023046 52 277 12.2 16.5 0.00 0.00 0.00 53 1005.3
20260505021549 52 270 13.0 20.9 0.00 0.00 0.00 52 1005.0
20260505020041 53 268 12.2 20.0 0.00 0.00 0.00 52 1004.6
20260505014538 53 279 14.8 20.9 0.00 0.00 0.00 51 1004.2
20260505013035 53 273 13.0 18.2 0.00 0.00 0.00 53 1004.0
20260505011534 54 274 13.0 25.2 0.00 0.00 0.00 53 1003.8
20260505010033 55 257 18.2 23.5 0.00 0.00 0.00 52 1003.5
20260505004530 57 269 15.6 20.9 0.00 0.00 0.00 48 1003.0
20260505003030 57 248 13.9 23.5 0.00 0.00 0.00 48 1002.8
20260505001529 58 264 14.8 20.9 0.00 0.00 0.00 45 1002.3
20260505000030 58 250 17.4 22.6 0.00 0.00 0.00 46 1002.3
20260504234533 58 264 19.1 25.2 0.00 0.00 0.00 42 1002.3
20260504233027 59 235 16.5 20.9 0.00 0.00 0.00 42 1002.4
20260504231526 59 242 13.9 23.5 0.00 0.00 0.00 43 1002.4
20260504230026 60 261 19.1 28.7 0.00 0.00 0.00 36 1002.2
20260504224526 61 280 18.2 23.5 0.00 0.00 0.00 41 1002.0
20260504223024 61 246 17.4 23.5 0.00 0.00 0.00 41 1001.8
20260504221523 62 251 14.8 20.0 0.00 0.00 0.00 39 1001.4
20260504220023 62 252 14.8 21.7 0.00 0.00 0.00 41 1001.2
20260504214523 63 282 17.4 20.9 0.00 0.00 0.00 38 1000.7
20260504213021 64 265 17.4 22.6 0.00 0.00 0.00 37 1000.5
20260504211520 64 253 15.6 24.3 0.00 0.00 0.00 38 1000.5
20260504210022 65 248 14.8 25.2 0.00 0.00 0.00 40 1000.4
20260504204519 65 290 10.4 22.6 0.00 0.00 0.00 41 1000.4
20260504203024 65 292 14.8 20.9 0.00 0.00 0.00 39 1000.3
20260504201518 66 267 15.6 23.5 0.00 0.00 0.00 37 1000.3
20260504200017 67 248 13.0 19.1 0.00 0.00 0.00 40 1000.1
20260504194517 67 269 15.6 20.9 0.00 0.00 0.00 38 999.9
20260504193018 67 259 16.5 21.7 0.00 0.00 0.00 39 999.8
20260504191523 67 289 13.0 20.0 0.00 0.00 0.00 38 999.7
20260504190014 67 250 17.4 23.5 0.00 0.00 0.00 38 999.7
20260504184514 67 277 8.7 20.9 0.00 0.00 0.00 39 999.6
20260504183014 67 302 11.3 19.1 0.00 0.00 0.00 39 999.3
20260504181513 68 259 12.2 18.2 0.00 0.00 0.00 37 999.2
20260504180012 67 256 13.9 20.0 0.00 0.00 0.00 39 999.0
20260504174512 67 240 11.3 15.6 0.00 0.00 0.00 42 998.9
20260504173010 67 257 9.6 13.9 0.00 0.00 0.00 45 998.8
20260504171510 68 267 8.7 18.2 0.00 0.00 0.00 44 998.8